This is the latest recevied weather packets stored in our database for station/object EA2FBA-10. If no packets are shown the sender has not sent any weather packets the latest 10 day(s).
| Time | Temp. | Humidity | Pressure | Rain* | Wind** | Luminosity | Snow |
|---|---|---|---|---|---|---|---|
| 1787857794 | 23.33° C | 45% | 950.5 hPa | - | - | - | - |
| 1787856903 | 23.89° C | 44% | 950.4 hPa | - | - | - | - |
| 1787856893 | 23.89° C | 44% | 950.4 hPa | - | - | - | - |
| 1787856011 | 23.89° C | 45% | 950.3 hPa | - | - | - | - |
| 1787855993 | 23.89° C | 45% | 950.3 hPa | - | - | - | - |
| 1787855103 | 24.44° C | 44% | 950 hPa | - | - | - | - |
| 1787855093 | 24.44° C | 44% | 950 hPa | - | - | - | - |
| 1787854203 | 24.44° C | 46% | 950 hPa | - | - | - | - |
| 1787854193 | 24.44° C | 46% | 950 hPa | - | - | - | - |
| 1787853303 | 25° C | 45% | 949.8 hPa | - | - | - | - |
| 1787853293 | 25° C | 45% | 949.8 hPa | - | - | - | - |
| 1787852402 | 25.56° C | 44% | 949.9 hPa | - | - | - | - |
| 1787852393 | 25.56° C | 44% | 949.9 hPa | - | - | - | - |
| 1787851502 | 26.11° C | 44% | 949.8 hPa | - | - | - | - |
| 1787851493 | 26.11° C | 44% | 949.8 hPa | - | - | - | - |
| 1787850602 | 26.11° C | 42% | 949.5 hPa | - | - | - | - |
| 1787850593 | 26.11° C | 42% | 949.5 hPa | - | - | - | - |
| 1787849702 | 26.67° C | 45% | 949 hPa | - | - | - | - |
| 1787849693 | 26.67° C | 45% | 949 hPa | - | - | - | - |
| 1787848802 | 26.67° C | 44% | 948.4 hPa | - | - | - | - |
| 1787848793 | 26.67° C | 44% | 948.4 hPa | - | - | - | - |
| 1787847902 | 27.22° C | 43% | 948.2 hPa | - | - | - | - |
| 1787847892 | 27.22° C | 43% | 948.2 hPa | - | - | - | - |
| 1787847002 | 27.78° C | 42% | 948 hPa | - | - | - | - |
| 1787846992 | 27.78° C | 42% | 948 hPa | - | - | - | - |
* Rain since midnight (hover to see other rain measurements)
** Current wind speed in m/s (hover to see current wind gust speed)